Regional Weather Roundup
Issued by NWS

Home | Current Version | Previous Version | Text Only | Print | Product List | Glossary Off
Versions: 1 2 3 4 5 6 7 8 9 10 11 12 13 14 15 16 17 18 19 20 21 22 23 24 25 26 27 28 29 30 31 32 33 34 35 36 37 38 39 40 41 42 43 44 45 46 47 48 49 50

000
ASUS44 KMEG 201410
RWRTN
TENNESSEE HOURLY STATE WEATHER ROUNDUP
NATIONAL WEATHER SERVICE MEMPHIS TN
900 AM CDT FRI OCT 20 2017

TNZ002-004-019-021-049-052-054-088>092-201500-
WEST TENNESSEE

CITY           SKY/WX    TMP DP  RH WIND       PRES   REMARKS
MEMPHIS INTL   PTSUNNY   61  54  77 E5        30.25R
NWS MEMPHIS      N/A     53 N/A N/A MISG        N/A
JACKSON        CLOUDY    54  51  90 E3        30.28R
SOMERVILLE     SUNNY     55  54  94 CALM      30.26R
COVINGTON      SUNNY     54  52  94 SE5       30.27R
UNION CITY     SUNNY     54  52  94 CALM      30.27R
BOLIVAR        SUNNY     54  50  87 CALM      30.28R
PARIS          SUNNY     55  52  88 CALM      30.28R
HUNTINGDON     SUNNY     54  50  87 E5        30.28R
LEXINGTON      SUNNY     52  48  87 CALM      30.29R
SELMER         SUNNY     55  52  88 CALM      30.28R
SAVANNAH       SUNNY     52  48  87 CALM      30.28R
$$

TNZ008-025-027-028-033-062-065-066-201500-
NORTH MIDDLE TENNESSEE

CITY           SKY/WX    TMP DP  RH WIND       PRES   REMARKS
NASHVILLE      MOSUNNY   57  49  74 CALM      30.32S
PORTLAND       SUNNY     57  52  82 SE3       30.30F
CLARKSVILLE    SUNNY     53  49  86 SE5       30.30R
SMYRNA         SUNNY     52  48  86 CALM      30.34R
COOKEVILLE     SUNNY     54  50  87 CALM      30.33R
GALLATIN       SUNNY     54  50  87 CALM      30.35S
CROSSVILLE     SUNNY     56  51  84 CALM      30.35S
$$

TNZ061-075-076-078-094-096-097-201500-
SOUTH MIDDLE TENNESSEE

CITY           SKY/WX    TMP DP  RH WIND       PRES   REMARKS
FAYETTEVILLE   SUNNY     55  50  82 CALM      30.31S
TULLAHOMA      SUNNY     54  46  76 CALM      30.32S
WINCHESTER     SUNNY     54  48  82 CALM        N/A
COLUMBIA       SUNNY     48  46  93 CALM      30.30S
SHELBYVILLE    SUNNY     55  50  82 CALM      30.32R
$$

TNZ017-018-042-046-047-201500-
NORTHEAST TENNESSEE

CITY           SKY/WX    TMP DP  RH WIND       PRES   REMARKS
TRI CITIES     SUNNY     51  47  86 CALM      30.37R
ELIZABETHTON   SUNNY     54  45  71 E6        30.37S
$$

TNZ012-013-036-069-073-074-201500-
CENTRAL EAST TENNESSEE

CITY           SKY/WX    TMP DP  RH WIND       PRES   REMARKS
KNOXVILLE      MOSUNNY   52  50  93 E3        30.34R
OAK RIDGE      CLOUDY    50  50 100 CALM      30.37R FOG
DOWNTOWN KNOXV MOSUNNY   50  50 100 SE5       30.36S
GATLINBURG     SUNNY     50  46  87 CALM      30.35S
MORRISTOWN     SUNNY     55  46  71 E3        30.35R
JACKSBORO      SUNNY     50  50 100 CALM      30.39S
$$

TNZ083-085-099-201500-
SOUTHEAST TENNESSEE

CITY           SKY/WX    TMP DP  RH WIND       PRES   REMARKS
CHATTANOOGA    FOG       50  49  96 CALM      30.34R VSB 1/4
DAYTON         FOG       52  50  93 CALM      30.34R VSB 1/4
$$

SKY/WX REPORTED AS FAIR MEANS FEW OR NO CLOUDS BELOW
12 THOUSAND FEET.





USA.gov is the U.S. government's official web portal to all federal, state and local government web resources and services.